Beale AFB, CA

9:43 AM PDT on September 19, 2017 (GMT -0700)
Beale Air Force Base

Weather History for KBAB - April, 2014

Change the Weather History Date:

Tuesday, April 22, 2014

  Actual Average Record
Temperature  
Mean Temperature 58 °F -  
Max Temperature 68 °F 72 °F 93 °F (2009)
Min Temperature 50 °F 50 °F 41 °F (2002)
Degree Days  
Heating Degree Days 6    
Growing Degree Days 8 (Base 50)    
Moisture  
Dew Point 41 °F    
Average Humidity 54    
Maximum Humidity 95    
Minimum Humidity 29    
Precipitation  
Precipitation 0.00 in - - ()
Sea Level Pressure  
Sea Level Pressure 30.21 in    
Wind  
Wind Speed 9 mph (SSE)    
Max Wind Speed 16 mph    
Max Gust Speed -    
Visibility 10 miles    
Events      
Averages and records for this station are not official NWS values.
T = Trace of Precipitation, MM = Missing Value Source: NWS Daily Summary

Daily Weather History Graph

Daily Weather History Graph

Search for Another Location

Airport or City:

Trip Planner

Search our weather history database for the weather conditions in past years. The results will help you decide how hot, cold, wet, or windy it might be!

Date:

Astronomy

Apr. 22, 2014 Rise Set
Actual Time 6:18 AM PDT 7:50 PM PDT
Civil Twilight 5:50 AM PDT 8:18 PM PDT
Nautical Twilight 5:16 AM PDT 8:52 PM PDT
Astronomical Twilight 4:41 AM PDT 9:28 PM PDT
Moon 2:08 AM PDT (4/22) 1:00 PM PDT (4/22)
Length of Visible Light 14h 27m
Length of Day
13h 31m
Last Quarter, 45% of the Moon is Illuminated
Apr 22
Last Quarter
Apr 28
New
May 6
First Quarter
May 14
Full
May 21
Last Quarter

Hourly Weather History & Observations

Time (PDT) Temp. Dew Point Humidity Pressure Visibility Wind Dir Wind Speed Gust Speed Precip Events Conditions
12:58 AM 56.3 °F 40.6 °F 56% 30.14 in 10.0 mi South 10.4 mph - N/A   Mostly Cloudy
1:58 AM 55.9 °F 43.2 °F 62% 30.12 in 10.0 mi SSE 15.0 mph - N/A   Overcast
2:58 AM 55.0 °F 46.6 °F 73% 30.12 in 10.0 mi SSE 16.1 mph - N/A   Overcast
3:58 AM 55.0 °F 47.5 °F 76% 30.12 in 10.0 mi SSE 13.8 mph - N/A   Mostly Cloudy
4:58 AM 52.3 °F 47.7 °F 84% 30.12 in 10.0 mi SSE 11.5 mph - N/A   Partly Cloudy
5:58 AM 50.5 °F 49.1 °F 95% 30.14 in 10.0 mi South 10.4 mph - N/A   Clear
6:58 AM 50.9 °F 48.7 °F 92% 30.17 in 10.0 mi SSE 6.9 mph - N/A   Overcast
7:58 AM 54.0 °F 45.0 °F 72% 30.20 in 10.0 mi South 6.9 mph - N/A   Mostly Cloudy
8:58 AM 56.8 °F 43.7 °F 61% 30.22 in 10.0 mi Variable 2.3 mph - N/A   Partly Cloudy
9:58 AM 60.3 °F 43.0 °F 53% 30.24 in 10.0 mi North 8.1 mph - N/A   Clear
10:58 AM 62.1 °F 36.9 °F 39% 30.26 in 10.0 mi Variable 5.8 mph - N/A   Mostly Cloudy
11:58 AM 63.3 °F 36.7 °F 37% 30.26 in 10.0 mi West 5.8 mph - N/A   Partly Cloudy
12:58 PM 65.5 °F 36.1 °F 34% 30.26 in 10.0 mi North 5.8 mph - N/A   Clear
1:58 PM 64.9 °F 36.7 °F 35% 30.25 in 10.0 mi Variable 2.3 mph - N/A   Partly Cloudy
2:58 PM 67.3 °F 37.4 °F 33% 30.25 in 10.0 mi SSE 6.9 mph - N/A   Mostly Cloudy
3:58 PM 67.8 °F 34.5 °F 29% 30.24 in 10.0 mi Variable 5.8 mph - N/A   Mostly Cloudy
4:58 PM 66.4 °F 32.9 °F 29% 30.23 in 10.0 mi Variable 2.3 mph - N/A   Clear
5:58 PM 66.4 °F 34.0 °F 30% 30.22 in 10.0 mi SE 8.1 mph - N/A   Clear
6:58 PM 63.5 °F 34.9 °F 34% 30.22 in 10.0 mi South 6.9 mph - N/A   Partly Cloudy
7:58 PM 58.6 °F 37.8 °F 46% 30.23 in 7.0 mi SSE 5.8 mph - N/A   Partly Cloudy
8:58 PM 56.3 °F 40.1 °F 55% 30.24 in 10.0 mi WSW 9.2 mph - N/A   Clear
9:58 PM 54.3 °F 41.5 °F 62% 30.26 in 10.0 mi SSE 3.5 mph - N/A   Clear
10:58 PM 53.8 °F 40.3 °F 60% 30.28 in 10.0 mi Calm Calm - N/A   Mostly Cloudy
11:58 PM 55.0 °F 40.6 °F 58% 30.28 in 10.0 mi SE 6.9 mph - N/A   Overcast